Location: DaVinci Observatory
(43.1080°N, 78.6453°W)
Time: 16:48:10
(UTC-05:00)

Vanguard 2 - All Passes

Search period start: 17 January 2018 00:00
Search period end: 27 January 2018 00:00
Orbit: 552 x 2940 km, 32.9° (Epoch: 16 January)

Date Brightness Start Highest point End Pass type
(mag) Time Alt. Az. Time Alt. Az. Time Alt. Az.
17 Jan - 02:43:58 10° S 02:49:57 19° SE 02:57:51 10° E visible
17 Jan - 04:48:24 10° SW 04:58:07 45° SSE 05:12:44 10° E visible
17 Jan - 06:56:06 10° WSW 07:08:36 57° S 07:25:39 10° ESE visible
17 Jan - 09:05:41 10° W 09:20:05 47° SSW 09:36:29 10° SE daylight
17 Jan - 11:18:04 10° W 11:30:44 26° SW 11:43:12 10° S daylight
18 Jan - 03:00:30 10° SSW 03:07:18 25° SE 03:16:56 10° E visible
18 Jan - 05:06:01 10° SW 05:15:55 50° SSE 05:31:01 10° E visible
18 Jan - 07:14:04 10° WSW 07:26:39 56° S 07:43:38 10° ESE daylight
18 Jan - 09:23:58 10° W 09:38:00 41° SSW 09:53:48 10° SE daylight
18 Jan - 11:37:39 10° W 11:48:17 20° SW 11:58:47 10° S daylight
19 Jan - 03:17:29 10° SSW 03:24:47 31° SSE 03:35:38 10° E visible
19 Jan - 05:23:45 10° WSW 05:33:50 53° S 05:49:14 10° E visible
19 Jan - 07:32:06 10° W 07:44:41 53° S 08:01:29 10° ESE daylight
19 Jan - 09:42:24 10° W 09:55:49 35° SSW 10:10:48 10° SSE daylight
19 Jan - 11:58:36 10° WSW 12:05:47 14° SW 12:12:56 10° SSW daylight
20 Jan - 01:32:58 10° SSE 01:35:09 11° SE 01:37:36 10° ESE visible
20 Jan - 03:34:46 10° SW 03:42:22 37° SSE 03:54:07 10° E visible
20 Jan - 05:41:34 10° WSW 05:51:48 54° S 06:07:23 10° ESE visible
20 Jan - 07:50:11 10° W 08:02:42 48° SSW 08:19:10 10° SE daylight
20 Jan - 10:01:05 10° W 10:13:36 29° SSW 10:27:22 10° SSE daylight
21 Jan - 01:48:07 10° S 01:52:27 16° SE 01:58:00 10° ESE visible
21 Jan - 03:52:16 10° SW 04:00:05 42° SSE 04:12:27 10° E visible
21 Jan - 05:59:28 10° WSW 06:09:48 53° S 06:25:27 10° ESE visible
21 Jan - 08:08:21 10° W 08:20:41 43° SSW 08:36:37 10° SE daylight
21 Jan - 10:20:13 10° W 10:31:19 23° SW 10:43:23 10° S daylight
22 Jan - 02:04:38 10° S 02:09:51 22° SE 02:17:06 10° E visible
22 Jan - 04:09:54 10° SW 04:17:54 46° SSE 04:30:44 10° E visible
22 Jan - 06:17:26 10° WSW 06:27:50 51° S 06:43:24 10° ESE visible
22 Jan - 08:26:39 10° W 08:38:38 37° SSW 08:53:47 10° SSE daylight
22 Jan - 10:40:10 10° WSW 10:49:00 17° SW 10:58:25 10° S daylight
23 Jan - 02:21:40 10° SSW 02:27:22 27° SSE 02:35:47 10° E visible
23 Jan - 04:27:39 10° WSW 04:35:47 49° S 04:48:55 10° ESE visible
23 Jan - 06:35:27 10° W 06:45:51 47° S 07:01:11 10° SE visible
23 Jan - 08:45:10 10° W 08:56:32 31° SSW 09:10:35 10° SSE daylight
23 Jan - 11:02:39 10° WSW 11:06:40 11° SW 11:10:49 10° SSW daylight
24 Jan - 02:38:59 10° SW 02:44:59 33° SSE 02:54:13 10° E visible
24 Jan - 04:45:29 10° WSW 04:53:44 49° S 05:07:03 10° ESE visible
24 Jan - 06:53:33 10° W 07:03:53 43° SSW 07:18:46 10° SE visible
24 Jan - 09:04:01 10° W 09:14:24 25° SSW 09:26:52 10° SSE daylight
25 Jan - 00:52:43 10° SSE 00:55:27 13° SE 00:58:40 10° ESE night (unlit)
25 Jan - 02:56:31 10° SW 03:02:43 38° SSE 03:12:31 10° E visible
25 Jan - 05:03:23 10° WSW 05:11:43 48° S 05:25:03 10° ESE visible
25 Jan - 07:11:46 10° W 07:21:53 37° SSW 07:36:05 10° SE daylight
25 Jan - 09:23:28 10° WSW 09:32:15 19° SW 09:42:24 10° S daylight
26 Jan - 01:09:05 10° S 01:12:54 18° SE 01:17:55 10° ESE visible
26 Jan - 03:14:10 10° SW 03:20:32 41° SSE 03:30:45 10° ESE visible
26 Jan - 05:21:21 10° WSW 05:29:43 45° S 05:42:55 10° ESE visible
26 Jan - 07:30:09 10° W 07:39:51 31° SSW 07:53:04 10° SSE daylight
26 Jan - 09:44:24 10° WSW 09:50:05 13° SW 09:56:17 10° SSW daylight
